QPF
0.00 0.00 0.00 0.00 0.00 0.00 0.00 0.00 0.00 0.00 0.00 0.00 0.00 0.00 0.00 0.00 0.00 0.00 0.00 0.00 0.00 0.00 0.00 0.00 0.00 0.00 0.00 0.00 0.00 0.00 0.00 0.00 0.00 0.00 0.00 0.00 0.00 0.00 0.00 0.00 0.00 0.00 0.00 0.00 0.00
0.00 0.00 0.00 0.00 0.00 0.00 0.00 0.00 0.00 0.00 0.00 0.00 0.00 0.00 0.00 0.00 0.00 0.00 0.00 0.00 0.00 0.00 0.00 0.00 0.00 0.00 0.00 0.00 0.00 0.00 0.00 0.00 0.00 0.00 0.00 0.00 0.00 0.00 0.00 0.00 0.00 0.00 0.00 0.00 0.00
0.00 0.00 0.00 0.00 0.00 0.00 0.00 0.00 0.00 0.00 0.00 0.00 0.00 0.00 0.00 0.00 0.00 0.00 0.00 0.00 0.00 0.00 0.00 0.00 0.00 0.00 0.00 0.00 0.00 0.00 0.00 0.00 0.00 0.00 0.00 0.00 0.00 0.00 0.00 0.00 0.00 0.00 0.00 0.00 0.00
0.00 0.00 0.00 0.00 0.00 0.00 0.00 0.00 0.00 0.00 0.00 0.00 0.00 0.00 0.00 0.00 0.00 0.00 0.00 0.00 0.00 0.00 0.00 0.00 0.00 0.00 0.00 0.00 0.00 0.00 0.00 0.00 0.00 0.00 0.00 0.00 0.00 0.00 0.00 0.00 0.00 0.00 0.00 0.00 0.00
0.00 0.00 0.00 0.00 0.00 0.00 0.00 0.00 0.00 0.00 0.00 0.00 0.00 0.00 0.00 0.00 0.00 0.00 0.00 0.00 0.00 0.00 0.00 0.00 0.00 0.00 0.00 0.00 0.00 0.00 0.00 0.00 0.00 0.00 0.00 0.00 0.00 0.00 0.00 0.00 0.00 0.00 0.00 0.00 0.00
0.00 0.00 0.00 0.00 0.00 0.00 0.00 0.00 0.00 0.00 0.00 0.00 0.00 0.00 0.00 0.00 0.00 0.00 0.00 0.00 0.00 0.00 0.00 0.00 0.00 0.00 0.00 0.00 0.00 0.00 0.00 0.00 0.00 0.00 0.00 0.00 0.00 0.00 0.00 0.00 0.00 0.00 0.00 0.00 0.00
0.01 0.01 0.00 0.00 0.00 0.00 0.00 0.00 0.00 0.00 0.00 0.00 0.00 0.00 0.00 0.00 0.00 0.00 0.00 0.00 0.00 0.00 0.00 0.00 0.00 0.00 0.00 0.00 0.00 0.00 0.00 0.00 0.00 0.00 0.00 0.00 0.00 0.00 0.00 0.00 0.00 0.00 0.00 0.00 0.00
0.09 0.05 0.02 0.00 0.00 0.00 0.00 0.00 0.00 0.00 0.00 0.00 0.00 0.00 0.00 0.00 0.00 0.00 0.00 0.00 0.00 0.00 0.00 0.00 0.00 0.00 0.00 0.00 0.00 0.00 0.00 0.00 0.00 0.00 0.00 0.00 0.00 0.00 0.00 0.00 0.00 0.00 0.00 0.00 0.00
0.06 0.07 0.06 0.07 0.05 0.01 0.00 0.00 0.00 0.00 0.00 0.00 0.00 0.00 0.00 0.00 0.00 0.00 0.00 0.00 0.00 0.00 0.00 0.00 0.00 0.00 0.00 0.00 0.00 0.00 0.00 0.00 0.00 0.00 0.00 0.00 0.00 0.00 0.00 0.00 0.00 0.00 0.00 0.00 0.00
0.04 0.06 0.05 0.08 0.05 0.01 0.00 0.00 0.00 0.00 0.00 0.00 0.00 0.00 0.00 0.00 0.00 0.00 0.00 0.00 0.00 0.00 0.00 0.00 0.00 0.00 0.00 0.00 0.00 0.00 0.00 0.00 0.00 0.00 0.00 0.00 0.00 0.00 0.00 0.00 0.00 0.00 0.00 0.00 0.00
0.01 0.02 0.02 0.03 0.05 0.03 0.01 0.00 0.00 0.00 0.00 0.00 0.00 0.00 0.00 0.00 0.00 0.00 0.00 0.00 0.00 0.00 0.00 0.00 0.00 0.00 0.00 0.00 0.00 0.00 0.00 0.00 0.00 0.00 0.00 0.00 0.00 0.00 0.00 0.00 0.00 0.00 0.00 0.00 0.00
0.04 0.05 0.05 0.04 0.06 0.03 0.01 0.00 0.00 0.00 0.00 0.00 0.00 0.00 0.00 0.00 0.00 0.00 0.00 0.00 0.00 0.00 0.00 0.00 0.00 0.00 0.00 0.00 0.00 0.00 0.00 0.00 0.00 0.00 0.00 0.00 0.00 0.00 0.00 0.00 0.00 0.00 0.00 0.00 0.00
0.01 0.04 0.08 0.15 0.14 0.05 0.00 0.00 0.00 0.00 0.00 0.00 0.00 0.00 0.00 0.00 0.00 0.00 0.00 0.00 0.00 0.00 0.00 0.00 0.00 0.00 0.00 0.00 0.00 0.00 0.00 0.00 0.00 0.00 0.00 0.00 0.00 0.00 0.00 0.00 0.00 0.00 0.00 0.00 0.00
0.00 0.00 0.04 0.10 0.13 0.02 0.01 0.00 0.00 0.00 0.00 0.00 0.00 0.00 0.00 0.00 0.00 0.00 0.00 0.00 0.00 0.00 0.00 0.00 0.00 0.00 0.00 0.00 0.00 0.00 0.00 0.00 0.00 0.00 0.00 0.00 0.00 0.00 0.00 0.00 0.00 0.00 0.00 0.00 0.00
0.01 0.02 0.02 0.02 0.01 0.00 0.00 0.02 0.01 0.02 0.03 0.00 0.00 0.00 0.00 0.00 0.00 0.00 0.00 0.00 0.00 0.00 0.00 0.00 0.00 0.00 0.00 0.00 0.00 0.00 0.00 0.00 0.00 0.00 0.00 0.00 0.00 0.00 0.00 0.00 0.00 0.00 0.00 0.00 0.00
0.01 0.03 0.02 0.04 0.02 0.01 0.00 0.03 0.09 0.13 0.07 0.00 0.00 0.00 0.00 0.00 0.00 0.00 0.00 0.00 0.00 0.00 0.00 0.00 0.00 0.00 0.00 0.00 0.00 0.00 0.00 0.00 0.00 0.00 0.00 0.00 0.00 0.00 0.00 0.00 0.00 0.00 0.00 0.00 0.00
0.00 0.03 0.04 0.02 0.01 0.00 0.01 0.07 0.17 0.14 0.02 0.00 0.00 0.00 0.00 0.00 0.00 0.00 0.00 0.00 0.00 0.00 0.00 0.00 0.00 0.00 0.00 0.00 0.00 0.00 0.00 0.00 0.00 0.00 0.00 0.00 0.00 0.00 0.00 0.00 0.00 0.00 0.00 0.00 0.00
0.00 0.02 0.09 0.03 0.02 0.01 0.06 0.11 0.15 0.05 0.00 0.00 0.00 0.00 0.00 0.00 0.00 0.00 0.00 0.00 0.00 0.00 0.00 0.00 0.00 0.00 0.00 0.00 0.00 0.00 0.00 0.00 0.00 0.00 0.00 0.00 0.00 0.00 0.00 0.00 0.00 0.00 0.00 0.00 0.00
0.01 0.01 0.07 0.07 0.09 0.06 0.09 0.14 0.09 0.00 0.00 0.00 0.00 0.00 0.00 0.00 0.00 0.00 0.00 0.00 0.00 0.00 0.00 0.00 0.00 0.00 0.00 0.00 0.00 0.00 0.00 0.00 0.00 0.00 0.00 0.00 0.00 0.00 0.00 0.00 0.00 0.00 0.00 0.00 0.00
0.01 0.00 0.02 0.06 0.08 0.17 0.29 0.12 0.01 0.00 0.00 0.00 0.01 0.00 0.00 0.00 0.00 0.00 0.00 0.00 0.00 0.00 0.00 0.00 0.00 0.00 0.00 0.00 0.00 0.00 0.00 0.00 0.00 0.00 0.00 0.00 0.00 0.00 0.00 0.00 0.00 0.00 0.00 0.00 0.00
0.02 0.02 0.01 0.05 0.15 0.25 0.25 0.22 0.03 0.00 0.00 0.00 0.01 0.02 0.00 0.00 0.00 0.00 0.00 0.00 0.00 0.00 0.00 0.00 0.00 0.00 0.00 0.00 0.00 0.00 0.00 0.00 0.00 0.00 0.00 0.00 0.00 0.00 0.00 0.00 0.00 0.00 0.00 0.00 0.00
0.04 0.06 0.00 0.06 0.27 0.25 0.13 0.04 0.01 0.00 0.00 0.00 0.00 0.01 0.02 0.01 0.00 0.00 0.00 0.00 0.00 0.00 0.00 0.00 0.00 0.00 0.00 0.00 0.00 0.00 0.00 0.00 0.00 0.00 0.00 0.00 0.00 0.00 0.00 0.00 0.00 0.00 0.00 0.00 0.00
0.06 0.05 0.03 0.04 0.19 0.23 0.04 0.00 0.00 0.00 0.00 0.05 0.02 0.00 0.00 0.01 0.00 0.00 0.00 0.00 0.00 0.00 0.00 0.00 0.00 0.00 0.00 0.00 0.00 0.00 0.00 0.00 0.00 0.00 0.00 0.00 0.00 0.00 0.00 0.00 0.00 0.00 0.00 0.00 0.00
0.08 0.08 0.11 0.13 0.06 0.07 0.04 0.02 0.00 0.00 0.00 0.02 0.07 0.05 0.01 0.01 0.00 0.00 0.00 0.00 0.00 0.00 0.00 0.00 0.00 0.00 0.00 0.00 0.00 0.00 0.00 0.00 0.00 0.00 0.00 0.00 0.00 0.00 0.00 0.00 0.00 0.00 0.00 0.00 0.00
0.23 0.14 0.03 0.08 0.04 0.02 0.01 0.04 0.02 0.01 0.01 0.01 0.02 0.04 0.10 0.04 0.01 0.01 0.00 0.00 0.00 0.00 0.00 0.00 0.00 0.00 0.00 0.00 0.00 0.00 0.00 0.00 0.00 0.00 0.00 0.00 0.00 0.00 0.00 0.00 0.00 0.00 0.00 0.00 0.00
0.29 0.18 0.02 0.00 0.00 0.00 0.00 0.01 0.03 0.01 0.00 0.02 0.02 0.00 0.00 0.01 0.03 0.02 0.00 0.00 0.00 0.00 0.00 0.00 0.00 0.00 0.00 0.00 0.00 0.00 0.00 0.00 0.00 0.00 0.00 0.00 0.00 0.00 0.00 0.00 0.00 0.00 0.00 0.00 0.00
0.10 0.16 0.06 0.01 0.00 0.01 0.01 0.00 0.01 0.02 0.05 0.03 0.01 0.00 0.00 0.00 0.00 0.00 0.00 0.00 0.00 0.00 0.00 0.00 0.00 0.00 0.00 0.00 0.00 0.00 0.00 0.00 0.00 0.00 0.00 0.00 0.00 0.00 0.00 0.00 0.00 0.00 0.00 0.00 0.00
MSLP
1021.37 1021.35 1021.31 1021.34 1021.39 1021.32 1021.16 1020.91 1020.86 1020.38 1020.14 1019.89 1019.61 1019.08 1018.48 1017.82 1016.78 1015.77 1015.27 1014.41 1014.15 1014.06 1014.08 1013.73 1013.22 1013.05 1013.07 1013.29 1013.29 1013.41 1014.51 1014.61 1013.92 1012.99 1012.65 1011.82 1011.52 1011.05 1011.05 1011.09 1011.26 1011.74 1012.02 1012.04 1011.80
1021.36 1021.28 1021.30 1021.21 1021.26 1021.27 1021.20 1021.02 1020.98 1020.59 1020.16 1019.92 1019.56 1019.07 1018.38 1017.94 1017.10 1015.62 1014.33 1014.11 1013.96 1013.98 1013.99 1013.95 1013.75 1013.41 1013.39 1013.45 1013.41 1013.72 1014.20 1013.77 1013.10 1012.64 1012.54 1012.11 1011.93 1011.92 1011.83 1011.95 1012.48 1012.57 1012.57 1012.65 1012.80
1020.98 1021.12 1021.09 1021.23 1021.17 1021.26 1021.11 1021.01 1020.91 1020.56 1020.20 1019.95 1019.52 1018.90 1018.21 1017.91 1017.02 1014.58 1014.11 1014.05 1014.01 1013.90 1013.93 1014.03 1013.91 1013.76 1013.67 1013.46 1013.50 1013.55 1013.56 1013.08 1012.71 1012.36 1012.11 1012.13 1012.06 1012.20 1012.34 1012.62 1012.78 1013.01 1013.24 1013.67 1014.22
1020.52 1020.87 1020.79 1020.98 1021.09 1021.16 1021.06 1020.89 1020.82 1020.50 1020.26 1020.02 1019.71 1018.93 1018.05 1017.65 1016.32 1013.92 1013.89 1014.10 1014.17 1013.87 1013.73 1013.83 1013.84 1013.77 1013.86 1013.82 1013.51 1013.73 1013.07 1012.84 1012.43 1012.09 1011.97 1012.02 1012.04 1012.29 1012.51 1012.74 1012.85 1013.01 1013.66 1014.79 1015.74
1020.29 1020.34 1020.43 1020.61 1020.87 1020.99 1020.90 1020.89 1020.63 1020.40 1020.27 1020.03 1019.87 1019.06 1018.19 1017.36 1015.28 1013.85 1013.92 1013.92 1014.05 1013.92 1013.77 1013.94 1013.96 1013.79 1013.97 1013.86 1013.62 1013.38 1013.24 1012.86 1012.43 1012.20 1011.92 1011.90 1012.13 1012.33 1012.67 1012.95 1013.12 1013.76 1015.18 1016.28 1016.85
1019.80 1019.94 1020.11 1020.28 1020.45 1020.71 1020.61 1020.70 1020.44 1020.34 1020.13 1020.00 1019.78 1018.93 1018.75 1016.98 1014.00 1013.92 1013.94 1014.06 1013.97 1013.90 1013.61 1013.83 1013.81 1013.57 1013.72 1013.78 1013.98 1013.72 1013.37 1012.96 1012.52 1012.34 1012.19 1012.05 1012.17 1012.33 1013.08 1013.05 1013.66 1014.96 1016.47 1017.32 1017.94
1019.32 1019.43 1019.83 1020.06 1020.18 1020.42 1020.38 1020.48 1020.29 1020.14 1020.04 1019.92 1019.74 1019.22 1018.69 1016.29 1013.84 1014.05 1014.42 1013.94 1013.52 1013.61 1013.75 1013.63 1013.52 1013.59 1013.94 1013.83 1013.68 1013.64 1013.54 1012.91 1012.37 1012.19 1012.36 1012.26 1012.65 1012.86 1013.00 1013.66 1015.18 1016.50 1017.64 1018.25 1018.83
1018.64 1018.91 1019.31 1019.54 1019.95 1020.10 1020.10 1020.25 1020.13 1020.07 1019.83 1019.84 1019.64 1019.45 1017.55 1014.61 1014.08 1014.20 1013.76 1013.97 1013.45 1013.35 1013.31 1013.36 1013.44 1013.89 1014.17 1014.11 1013.74 1014.00 1014.04 1013.79 1012.42 1012.29 1012.32 1012.76 1013.59 1013.60 1013.76 1014.57 1016.57 1017.65 1018.60 1019.16 1019.53
1018.21 1018.41 1018.78 1019.16 1019.38 1019.74 1019.84 1019.92 1019.99 1019.78 1019.73 1019.60 1019.66 1019.03 1016.66 1014.19 1013.85 1013.10 1013.23 1013.38 1013.50 1013.44 1013.19 1013.24 1013.66 1014.32 1014.60 1014.97 1015.10 1014.77 1014.52 1014.11 1013.27 1012.55 1012.53 1013.26 1014.03 1014.11 1014.53 1015.49 1017.74 1018.76 1019.34 1019.68 1020.06
1017.65 1018.10 1018.33 1018.84 1018.93 1019.40 1019.53 1019.75 1019.47 1019.64 1019.02 1019.25 1019.02 1018.91 1015.81 1014.15 1013.26 1012.90 1012.81 1012.91 1013.38 1013.48 1013.85 1013.94 1014.47 1014.76 1015.33 1015.51 1015.48 1014.97 1014.62 1013.97 1013.67 1013.34 1013.18 1013.65 1014.12 1014.75 1015.53 1016.45 1018.76 1019.86 1020.40 1020.55 1020.61
1017.38 1017.51 1018.02 1018.54 1018.89 1019.02 1020.09 1019.28 1019.77 1019.73 1018.88 1017.67 1017.28 1016.24 1014.56 1013.57 1012.99 1012.73 1012.80 1013.22 1013.47 1013.69 1014.28 1014.62 1015.40 1015.42 1014.94 1015.07 1014.79 1014.79 1014.44 1014.51 1014.10 1013.78 1013.98 1014.54 1015.04 1015.54 1016.85 1017.75 1019.24 1020.30 1020.79 1021.04 1021.09
1016.94 1017.28 1017.63 1018.05 1018.47 1019.39 1019.65 1019.36 1018.84 1019.05 1017.94 1016.27 1015.90 1015.59 1014.36 1014.15 1013.92 1013.01 1012.92 1013.45 1013.96 1014.35 1014.61 1015.13 1015.12 1014.70 1014.80 1014.72 1014.46 1014.69 1014.73 1014.66 1014.49 1014.61 1014.82 1015.46 1016.31 1016.51 1017.78 1019.24 1020.20 1020.76 1021.27 1021.32 1021.43
1016.54 1016.87 1017.42 1017.86 1018.59 1019.72 1019.43 1018.55 1018.42 1018.96 1018.16 1015.24 1014.05 1013.30 1012.91 1013.31 1013.36 1012.77 1013.16 1013.55 1013.88 1014.49 1015.04 1015.15 1014.08 1013.89 1014.22 1014.71 1014.72 1014.74 1014.70 1015.13 1015.39 1015.27 1015.83 1016.43 1017.39 1017.66 1019.54 1020.23 1021.10 1021.70 1021.86 1021.93 1021.86
1016.49 1016.54 1017.12 1018.13 1019.20 1019.00 1019.10 1018.03 1018.54 1019.09 1017.86 1014.38 1012.56 1010.90 1011.16 1012.26 1012.27 1012.00 1012.27 1013.32 1013.84 1013.99 1014.69 1014.94 1013.93 1014.15 1013.93 1014.03 1014.65 1015.23 1015.41 1015.73 1016.15 1016.66 1017.28 1017.50 1018.37 1018.80 1019.83 1020.88 1021.60 1022.28 1022.50 1022.39 1022.28
1016.56 1016.57 1016.93 1017.26 1017.80 1017.98 1017.68 1018.02 1018.67 1019.14 1017.04 1012.54 1010.81 1009.57 1010.08 1011.42 1011.71 1011.53 1011.55 1012.60 1013.36 1013.73 1014.04 1013.95 1013.78 1013.88 1014.21 1014.26 1014.33 1015.54 1016.11 1016.72 1017.14 1017.80 1018.45 1018.61 1019.59 1019.48 1020.46 1021.53 1022.12 1022.39 1022.55 1022.62 1022.48
1016.43 1016.73 1016.82 1017.22 1017.48 1017.21 1017.26 1018.00 1018.90 1018.77 1015.16 1011.86 1010.26 1009.85 1010.60 1011.36 1011.71 1011.72 1011.83 1012.03 1012.71 1013.81 1013.88 1013.98 1013.84 1013.99 1014.40 1014.77 1014.98 1015.78 1016.66 1017.36 1018.10 1018.89 1019.26 1018.95 1019.60 1019.94 1020.81 1021.19 1022.26 1022.71 1022.72 1022.69 1022.62
1016.10 1016.41 1016.74 1016.75 1016.75 1017.34 1017.00 1017.98 1018.13 1016.53 1013.19 1011.40 1010.68 1010.46 1010.84 1011.12 1011.66 1012.03 1012.02 1012.46 1012.72 1014.10 1014.29 1014.11 1014.10 1014.24 1014.49 1015.19 1015.66 1016.25 1017.53 1018.83 1019.57 1019.98 1019.17 1018.96 1019.79 1020.37 1020.96 1021.35 1021.99 1022.64 1022.72 1022.64 1022.66
1015.91 1016.04 1016.20 1016.33 1016.31 1016.59 1017.42 1017.34 1016.06 1013.64 1012.28 1010.46 1010.09 1010.75 1011.03 1011.09 1011.74 1012.28 1012.22 1012.56 1012.80 1013.33 1014.46 1014.51 1014.47 1014.27 1014.48 1014.80 1015.43 1016.54 1017.41 1019.09 1019.76 1020.38 1019.81 1019.28 1020.25 1020.60 1021.20 1021.51 1021.86 1022.29 1022.56 1022.57 1022.73
1015.52 1016.07 1016.16 1016.09 1016.52 1016.58 1016.83 1014.80 1013.52 1012.05 1011.17 1010.33 1010.26 1010.88 1011.26 1011.13 1011.45 1012.08 1012.19 1012.01 1012.09 1012.31 1013.69 1013.96 1014.13 1014.00 1014.39 1014.60 1015.27 1016.60 1017.57 1018.28 1019.85 1020.87 1020.93 1020.63 1021.37 1021.40 1021.55 1021.77 1022.09 1022.60 1022.84 1022.94 1023.05
1015.62 1015.93 1015.97 1015.93 1016.39 1016.97 1015.86 1013.40 1012.30 1010.95 1010.44 1010.00 1010.03 1010.60 1010.69 1010.89 1011.39 1011.59 1011.79 1011.30 1011.70 1011.81 1012.46 1013.42 1014.26 1014.36 1014.76 1014.85 1015.73 1016.29 1017.35 1018.77 1020.35 1021.43 1021.47 1020.65 1020.87 1020.57 1021.05 1021.51 1022.15 1022.72 1022.88 1022.97 1023.05
1015.67 1015.79 1015.73 1015.81 1016.58 1016.63 1014.57 1013.61 1012.26 1010.90 1010.47 1010.28 1009.95 1010.18 1010.27 1010.48 1010.55 1010.81 1010.96 1010.70 1010.82 1011.43 1012.22 1013.10 1014.10 1015.27 1015.15 1015.22 1015.79 1016.93 1017.42 1018.79 1019.98 1021.05 1021.46 1021.43 1020.73 1019.55 1020.14 1021.00 1021.99 1022.40 1022.63 1022.79 1023.01
1015.29 1015.76 1015.73 1015.67 1016.30 1015.70 1014.50 1013.49 1012.40 1011.66 1010.92 1010.63 1010.21 1010.14 1010.29 1010.48 1010.22 1010.60 1010.57 1010.30 1010.26 1010.89 1012.09 1012.92 1014.16 1015.04 1014.95 1014.89 1015.12 1016.12 1017.21 1018.26 1020.12 1021.07 1021.28 1021.27 1020.43 1019.96 1020.18 1021.05 1021.61 1022.10 1022.34 1022.69 1023.04
1015.06 1015.59 1015.66 1015.78 1015.18 1015.25 1014.40 1013.83 1012.55 1011.67 1010.92 1010.48 1010.23 1010.36 1010.39 1010.88 1010.95 1009.89 1010.28 1010.46 1010.65 1011.15 1011.64 1012.78 1014.06 1015.21 1015.47 1015.95 1015.67 1016.23 1016.82 1017.50 1018.79 1020.11 1020.66 1021.18 1020.38 1019.87 1020.47 1021.21 1021.58 1021.96 1022.37 1022.76 1022.86
1015.31 1015.66 1015.90 1015.53 1015.13 1014.62 1014.05 1013.17 1012.45 1011.80 1011.48 1010.82 1011.05 1011.28 1011.71 1010.41 1009.68 1010.46 1011.10 1011.47 1011.83 1011.81 1011.80 1012.24 1014.05 1014.46 1014.49 1015.04 1015.42 1016.04 1016.46 1016.99 1017.91 1019.58 1019.65 1019.36 1019.53 1019.87 1020.38 1021.07 1021.56 1022.15 1022.27 1022.44 1022.72
1014.20 1014.11 1013.66 1014.51 1014.63 1014.14 1013.85 1013.15 1012.37 1011.83 1010.98 1010.79 1010.85 1011.17 1011.41 1011.52 1011.54 1011.73 1011.95 1012.43 1012.94 1013.05 1013.00 1013.38 1014.40 1015.01 1015.15 1015.08 1015.30 1015.51 1015.93 1016.40 1016.97 1017.44 1018.17 1018.18 1018.33 1018.50 1019.60 1020.70 1021.50 1021.75 1022.10 1022.45 1022.69
1013.41 1013.59 1013.56 1013.16 1013.31 1013.76 1013.36 1012.41 1011.87 1011.15 1011.23 1010.63 1010.38 1010.21 1010.94 1011.13 1011.73 1012.05 1012.69 1012.93 1013.20 1013.94 1014.14 1014.39 1015.23 1015.50 1015.82 1015.66 1015.54 1015.46 1015.46 1015.71 1015.92 1016.39 1016.89 1017.26 1017.86 1018.09 1019.41 1020.56 1021.56 1021.87 1022.13 1022.53 1022.92
1012.51 1012.67 1012.64 1012.21 1012.20 1012.95 1012.10 1011.05 1010.82 1010.85 1010.50 1010.12 1010.78 1010.42 1010.46 1010.21 1010.05 1009.89 1010.92 1011.56 1012.27 1013.28 1014.52 1015.07 1015.74 1016.64 1016.69 1016.35 1016.15 1015.49 1014.58 1014.91 1015.23 1015.51 1016.04 1016.67 1017.45 1018.57 1020.00 1020.95 1021.64 1022.17 1022.56 1022.99 1023.21
Thickness
5647 5650 5651 5653 5654 5656 5659 5662 5663 5668 5671 5674 5678 5683 5689 5695 5706 5715 5715 5723 5726 5727 5726 5727 5732 5732 5731 5725 5728 5727 5690 5684 5696 5702 5704 5720 5718 5732 5736 5725 5724 5726 5726 5731 5738
5639 5641 5643 5646 5646 5649 5651 5654 5656 5661 5665 5667 5671 5676 5684 5689 5697 5707 5719 5721 5723 5723 5721 5717 5714 5719 5711 5715 5716 5704 5684 5694 5707 5714 5705 5714 5714 5717 5719 5714 5709 5712 5721 5726 5723
5633 5634 5637 5638 5640 5641 5644 5646 5648 5653 5658 5661 5665 5670 5678 5683 5690 5709 5714 5716 5717 5718 5717 5714 5713 5711 5705 5709 5707 5704 5692 5705 5710 5715 5714 5710 5712 5711 5703 5694 5706 5704 5707 5705 5703
5628 5628 5631 5631 5631 5634 5636 5640 5642 5646 5650 5653 5656 5663 5672 5678 5671 5708 5710 5708 5708 5712 5712 5707 5705 5701 5696 5691 5701 5692 5704 5706 5708 5711 5711 5705 5709 5702 5699 5698 5707 5708 5703 5689 5684
5623 5624 5626 5625 5624 5626 5630 5631 5636 5640 5643 5645 5647 5656 5664 5667 5677 5702 5703 5702 5702 5704 5701 5697 5693 5696 5685 5688 5691 5692 5696 5703 5707 5705 5706 5709 5700 5695 5695 5699 5702 5696 5682 5674 5674
5619 5620 5620 5619 5620 5620 5623 5624 5629 5632 5636 5637 5640 5649 5652 5653 5692 5694 5696 5695 5695 5695 5695 5693 5691 5696 5689 5687 5681 5686 5688 5693 5700 5698 5698 5699 5696 5694 5691 5697 5693 5681 5667 5663 5661
5614 5616 5615 5614 5615 5615 5618 5618 5621 5625 5628 5631 5634 5640 5644 5653 5686 5688 5685 5690 5694 5692 5683 5689 5691 5686 5683 5679 5688 5685 5677 5683 5691 5693 5690 5696 5683 5677 5689 5687 5673 5662 5655 5653 5650
5610 5612 5611 5611 5609 5610 5613 5614 5617 5619 5622 5624 5628 5633 5641 5672 5677 5680 5685 5681 5688 5689 5687 5686 5688 5678 5675 5680 5677 5671 5669 5655 5680 5681 5686 5681 5655 5676 5681 5675 5653 5650 5646 5642 5639
5604 5605 5605 5605 5606 5606 5608 5611 5611 5615 5616 5619 5620 5629 5640 5670 5670 5679 5682 5677 5677 5679 5683 5683 5678 5665 5665 5651 5641 5650 5642 5646 5658 5676 5674 5667 5650 5668 5669 5660 5641 5635 5634 5633 5629
5598 5597 5599 5599 5600 5600 5601 5603 5607 5610 5615 5614 5618 5621 5647 5656 5668 5673 5677 5678 5670 5667 5663 5663 5654 5649 5640 5633 5625 5637 5637 5652 5647 5661 5658 5653 5653 5659 5650 5641 5622 5617 5617 5617 5616
5588 5592 5590 5590 5592 5594 5587 5596 5598 5601 5607 5620 5625 5634 5648 5660 5666 5667 5670 5662 5663 5659 5640 5647 5630 5625 5640 5641 5645 5645 5644 5636 5642 5652 5646 5635 5637 5647 5634 5625 5615 5606 5603 5602 5602
5581 5580 5582 5584 5584 5582 5584 5587 5593 5594 5601 5622 5625 5629 5641 5646 5637 5652 5663 5648 5642 5632 5641 5634 5621 5637 5640 5641 5644 5640 5633 5628 5636 5640 5635 5623 5618 5624 5616 5607 5602 5599 5592 5591 5589
5569 5570 5570 5571 5571 5568 5576 5582 5582 5582 5585 5622 5631 5637 5641 5640 5637 5642 5648 5641 5635 5628 5625 5618 5637 5645 5639 5634 5631 5631 5629 5627 5625 5627 5624 5616 5602 5610 5594 5592 5588 5582 5580 5579 5577
5551 5558 5558 5556 5554 5561 5564 5576 5573 5569 5568 5612 5628 5642 5649 5640 5635 5650 5650 5638 5630 5624 5620 5617 5636 5633 5636 5632 5628 5613 5621 5616 5612 5602 5594 5604 5577 5600 5587 5580 5573 5565 5558 5559 5560
5534 5539 5546 5545 5551 5559 5563 5559 5558 5555 5556 5615 5630 5652 5647 5633 5636 5640 5646 5635 5620 5624 5621 5618 5627 5621 5619 5623 5627 5608 5609 5603 5600 5589 5582 5588 5571 5575 5573 5565 5560 5553 5551 5545 5544
5517 5521 5527 5529 5538 5550 5552 5547 5542 5538 5549 5599 5620 5622 5622 5624 5623 5629 5629 5633 5629 5614 5616 5613 5622 5620 5613 5611 5608 5604 5597 5591 5580 5570 5556 5572 5565 5568 5558 5560 5548 5540 5536 5535 5533
5500 5504 5507 5515 5527 5532 5538 5531 5527 5531 5585 5593 5599 5607 5605 5605 5609 5610 5609 5604 5599 5587 5588 5601 5601 5607 5606 5596 5598 5593 5574 5553 5553 5549 5560 5577 5559 5550 5549 5548 5540 5525 5524 5524 5520
5478 5486 5491 5499 5512 5518 5515 5515 5516 5550 5572 5601 5600 5593 5590 5598 5595 5595 5595 5595 5599 5595 5580 5575 5576 5590 5598 5593 5584 5578 5570 5540 5549 5543 5554 5567 5535 5536 5536 5530 5526 5522 5515 5512 5506
5461 5465 5473 5485 5492 5498 5502 5517 5526 5562 5576 5587 5584 5576 5578 5589 5591 5587 5584 5591 5600 5601 5579 5575 5577 5589 5590 5593 5586 5571 5559 5562 5544 5535 5533 5537 5520 5522 5521 5517 5513 5503 5499 5494 5492
5442 5447 5458 5470 5473 5477 5489 5510 5533 5563 5572 5575 5568 5573 5567 5579 5576 5578 5576 5593 5592 5598 5594 5582 5566 5578 5577 5581 5573 5566 5561 5536 5514 5522 5519 5524 5511 5508 5516 5515 5508 5492 5485 5484 5478
5421 5430 5446 5452 5452 5454 5476 5479 5525 5548 5556 5555 5559 5560 5568 5570 5577 5573 5573 5590 5593 5589 5584 5576 5561 5556 5563 5560 5555 5545 5542 5539 5526 5502 5509 5510 5506 5523 5518 5510 5492 5483 5477 5470 5465
5405 5412 5429 5434 5430 5433 5457 5490 5513 5522 5535 5539 5550 5553 5553 5562 5563 5562 5565 5580 5587 5583 5571 5570 5553 5541 5552 5558 5555 5545 5534 5522 5475 5500 5472 5465 5497 5508 5499 5488 5480 5476 5470 5461 5454
5389 5395 5409 5415 5430 5431 5460 5474 5495 5513 5526 5533 5538 5547 5553 5547 5543 5561 5564 5569 5570 5569 5562 5561 5539 5522 5534 5533 5540 5533 5535 5529 5500 5484 5494 5462 5486 5497 5486 5475 5471 5462 5456 5450 5444
5369 5381 5384 5393 5405 5435 5446 5467 5475 5500 5504 5516 5520 5526 5526 5543 5552 5542 5544 5544 5549 5555 5559 5556 5537 5539 5538 5533 5524 5522 5526 5520 5509 5470 5488 5482 5487 5479 5474 5466 5461 5450 5445 5440 5434
5366 5380 5392 5389 5403 5422 5437 5451 5464 5476 5499 5510 5514 5519 5509 5511 5524 5515 5524 5528 5528 5537 5539 5537 5527 5528 5526 5527 5527 5527 5522 5516 5508 5503 5482 5495 5496 5487 5473 5461 5450 5446 5439 5432 5426
5358 5372 5380 5393 5416 5410 5424 5448 5459 5477 5487 5495 5505 5522 5515 5510 5508 5503 5510 5509 5517 5519 5520 5515 5485 5515 5510 5514 5515 5512 5512 5511 5512 5504 5497 5493 5485 5478 5463 5449 5437 5433 5428 5421 5413
5358 5371 5382 5395 5402 5404 5426 5449 5462 5474 5483 5497 5487 5496 5502 5515 5522 5528 5523 5517 5518 5508 5499 5501 5492 5486 5492 5504 5501 5494 5507 5509 5506 5502 5490 5470 5473 5460 5449 5441 5427 5419 5413 5406 5401